• In Hungary
  • List of Countries
  • For 7 days
  • Water Temperature
  • Satellite Maps
  • Weather Map
  • News
  • Weather Widgets
  • user-avatar
    Login

    Hourly Weather Orlik

    Today, 18 June, Monday

    Time Temperature Precipitation Wind Pressure Humidity
    00:00 +10°C° 0 mm 1 mps 643 mmHg 75%
    01:00 +8°C° 0 mm 0 mps 642 mmHg 80%
    02:00 +8°C° 0 mm 0 mps 642 mmHg 80%
    03:00 +7°C° 0 mm 0 mps 642 mmHg 81%
    04:00 +7°C° 0 mm 0 mps 642 mmHg 82%
    05:00 +9°C° 0 mm 0 mps 643 mmHg 73%
    06:00 +12°C° 0 mm 0 mps 644 mmHg 64%
    07:00 +15°C° 0 mm 1 mps 645 mmHg 56%
    08:00 +16°C° 0 mm 1 mps 645 mmHg 50%
    09:00 +17°C° 0 mm 0 mps 645 mmHg 44%
    10:00 +18°C° 0 mm 0 mps 645 mmHg 38%
    11:00 +19°C° 0 mm 0 mps 645 mmHg 35%
    12:00 +20°C° 0 mm 0 mps 645 mmHg 33%
    13:00 +23°C° 0 mm 1 mps 645 mmHg 32%
    14:00 +24°C° 0 mm 1 mps 645 mmHg 31%
    15:00 +24°C° 0 mm 1 mps 645 mmHg 30%
    16:00 +24°C° 0 mm 1 mps 644 mmHg 28%
    17:00 +24°C° 0 mm 1 mps 644 mmHg 30%
    18:00 +24°C° 0 mm 1 mps 644 mmHg 32%
    19:00 +23°C° 0 mm 2 mps 643 mmHg 39%
    20:00 +20°C° 0 mm 2 mps 643 mmHg 45%
    21:00 +18°C° 0 mm 2 mps 642 mmHg 51%
    22:00 +16°C° 0 mm 2 mps 642 mmHg 57%
    23:00 +15°C° 0 mm 2 mps 642 mmHg 60%

    Tomorrow, 19 June, Tuesday

    Time Temperature Precipitation Wind Pressure Humidity
    00:00 +15°C° 0 mm 2 mps 642 mmHg 62%
    01:00 +14°C° 0 mm 2 mps 641 mmHg 64%
    02:00 +14°C° 0 mm 2 mps 641 mmHg 65%
    03:00 +14°C° 0 mm 2 mps 641 mmHg 66%
    04:00 +14°C° 0 mm 2 mps 640 mmHg 67%
    05:00 +15°C° 0 mm 2 mps 641 mmHg 63%
    06:00 +17°C° 0 mm 2 mps 641 mmHg 60%
    07:00 +18°C° 0 mm 3 mps 641 mmHg 57%
    08:00 +20°C° 0 mm 3 mps 641 mmHg 53%
    09:00 +21°C° 0 mm 3 mps 641 mmHg 49%
    10:00 +24°C° 0 mm 3 mps 641 mmHg 45%
    11:00 +25°C° 0 mm 3 mps 641 mmHg 41%
    12:00 +26°C° 0 mm 3 mps 641 mmHg 37%
    13:00 +27°C° 0 mm 3 mps 641 mmHg 34%
    14:00 +27°C° 0 mm 2 mps 641 mmHg 34%
    15:00 +28°C° 0 mm 2 mps 640 mmHg 34%
    16:00 +28°C° 0 mm 2 mps 640 mmHg 34%
    17:00 +26°C° 0.8 mm 3 mps 640 mmHg 45%
    18:00 +24°C° 0.8 mm 3 mps 640 mmHg 56%
    19:00 +21°C° 0.8 mm 4 mps 639 mmHg 67%
    20:00 +20°C° 1.2 mm 3 mps 639 mmHg 73%
    21:00 +18°C° 1.2 mm 3 mps 639 mmHg 80%
    22:00 +17°C° 1.2 mm 2 mps 639 mmHg 87%
    23:00 +17°C° 0.3 mm 2 mps 639 mmHg 88%

    Day after tomorrow, 20 June, Wednesday

    Time Temperature Precipitation Wind Pressure Humidity
    00:00 +16°C° 0.3 mm 2 mps 639 mmHg 89%
    01:00 +16°C° 0.3 mm 2 mps 639 mmHg 90%
    02:00 +16°C° 0 mm 2 mps 638 mmHg 91%
    03:00 +15°C° 0 mm 1 mps 638 mmHg 91%
    04:00 +15°C° 0 mm 1 mps 638 mmHg 91%
    05:00 +16°C° 0.1 mm 1 mps 639 mmHg 86%
    06:00 +18°C° 0.1 mm 1 mps 639 mmHg 81%
    07:00 +19°C° 0.1 mm 1 mps 639 mmHg 76%
    08:00 +19°C° 0.5 mm 2 mps 640 mmHg 72%
    09:00 +20°C° 0.5 mm 2 mps 640 mmHg 67%
    10:00 +21°C° 0.5 mm 3 mps 640 mmHg 62%
    11:00 +21°C° 0.3 mm 3 mps 640 mmHg 58%
    12:00 +22°C° 0.3 mm 3 mps 640 mmHg 54%
    13:00 +23°C° 0.3 mm 4 mps 641 mmHg 50%
    14:00 +23°C° 0.2 mm 4 mps 641 mmHg 50%
    15:00 +23°C° 0.2 mm 4 mps 641 mmHg 49%
    16:00 +23°C° 0.2 mm 4 mps 641 mmHg 48%
    17:00 +22°C° 0.2 mm 3 mps 640 mmHg 52%
    18:00 +22°C° 0.2 mm 3 mps 640 mmHg 55%
    19:00 +21°C° 0.2 mm 3 mps 640 mmHg 59%
    20:00 +19°C° 0 mm 2 mps 640 mmHg 67%
    21:00 +18°C° 0 mm 2 mps 640 mmHg 76%
    22:00 +16°C° 0 mm 1 mps 639 mmHg 84%
    23:00 +15°C° 0 mm 1 mps 639 mmHg 87%

    21 June, Thursday

    Time Temperature Precipitation Wind Pressure Humidity
    00:00 +15°C° 0 mm 1 mps 639 mmHg 89%
    01:00 +14°C° 0 mm 1 mps 639 mmHg 92%
    02:00 +13°C° 0.1 mm 1 mps 639 mmHg 93%
    03:00 +12°C° 0.1 mm 0 mps 639 mmHg 93%
    04:00 +11°C° 0.1 mm 0 mps 639 mmHg 94%
    05:00 +13°C° 0.1 mm 0 mps 639 mmHg 88%
    06:00 +16°C° 0.1 mm 1 mps 640 mmHg 82%
    07:00 +19°C° 0.1 mm 1 mps 640 mmHg 76%
    08:00 +20°C° 0.4 mm 1 mps 640 mmHg 69%
    09:00 +21°C° 0.4 mm 1 mps 640 mmHg 61%
    10:00 +22°C° 0.4 mm 1 mps 641 mmHg 54%
    11:00 +23°C° 0.6 mm 1 mps 641 mmHg 49%
    12:00 +25°C° 0.6 mm 1 mps 641 mmHg 45%
    13:00 +26°C° 0.6 mm 1 mps 641 mmHg 41%
    14:00 +25°C° 1.1 mm 1 mps 640 mmHg 45%
    15:00 +24°C° 1.1 mm 2 mps 640 mmHg 48%
    16:00 +23°C° 1.1 mm 2 mps 640 mmHg 51%
    17:00 +23°C° 1 mm 2 mps 640 mmHg 54%
    18:00 +21°C° 1 mm 2 mps 640 mmHg 57%
    19:00 +21°C° 1 mm 2 mps 640 mmHg 60%
    20:00 +19°C° 0.6 mm 2 mps 640 mmHg 66%
    21:00 +17°C° 0.6 mm 2 mps 640 mmHg 72%
    22:00 +16°C° 0.6 mm 1 mps 640 mmHg 78%
    23:00 +15°C° 0.1 mm 1 mps 640 mmHg 79%

    22 June, Friday

    Time Temperature Precipitation Wind Pressure Humidity
    00:00 +15°C° 0.1 mm 1 mps 640 mmHg 80%
    01:00 +14°C° 0.1 mm 1 mps 640 mmHg 81%
    02:00 +14°C° 0 mm 1 mps 640 mmHg 83%
    03:00 +14°C° 0 mm 1 mps 641 mmHg 85%
    04:00 +13°C° 0 mm 1 mps 641 mmHg 87%
    05:00 +14°C° 0 mm 1 mps 641 mmHg 82%
    06:00 +15°C° 0 mm 1 mps 642 mmHg 77%
    07:00 +16°C° 0 mm 1 mps 642 mmHg 72%
    08:00 +17°C° 0.1 mm 2 mps 642 mmHg 63%
    09:00 +19°C° 0.1 mm 2 mps 642 mmHg 53%
    10:00 +20°C° 0.1 mm 2 mps 643 mmHg 43%
    11:00 +21°C° 0.2 mm 3 mps 643 mmHg 40%
    12:00 +21°C° 0.2 mm 4 mps 642 mmHg 38%
    13:00 +22°C° 0.2 mm 4 mps 642 mmHg 35%
    14:00 +22°C° 0.1 mm 4 mps 642 mmHg 35%
    15:00 +22°C° 0.1 mm 4 mps 642 mmHg 36%
    16:00 +22°C° 0.1 mm 4 mps 642 mmHg 36%
    17:00 +22°C° 0.1 mm 4 mps 642 mmHg 37%
    18:00 +21°C° 0.1 mm 3 mps 642 mmHg 39%
    19:00 +21°C° 0.1 mm 3 mps 642 mmHg 41%
    20:00 +19°C° 0 mm 2 mps 642 mmHg 49%
    21:00 +16°C° 0 mm 1 mps 641 mmHg 57%
    22:00 +13°C° 0 mm 0 mps 641 mmHg 65%
    23:00 +13°C° 0 mm 0 mps 641 mmHg 68%

    23 June, Saturday

    Time Temperature Precipitation Wind Pressure Humidity
    00:00 +12°C° 0 mm 0 mps 641 mmHg 70%
    01:00 +11°C° 0 mm 0 mps 640 mmHg 73%
    02:00 +11°C° 0 mm 0 mps 640 mmHg 74%
    03:00 +10°C° 0 mm 0 mps 640 mmHg 76%
    04:00 +10°C° 0 mm 0 mps 640 mmHg 77%
    05:00 +12°C° 0 mm 0 mps 640 mmHg 69%
    06:00 +15°C° 0 mm 0 mps 641 mmHg 60%
    07:00 +17°C° 0 mm 0 mps 642 mmHg 51%
    08:00 +20°C° 0 mm 1 mps 642 mmHg 46%
    09:00 +22°C° 0 mm 1 mps 642 mmHg 40%
    10:00 +23°C° 0 mm 1 mps 642 mmHg 35%
    11:00 +24°C° 0 mm 1 mps 642 mmHg 32%
    12:00 +25°C° 0 mm 1 mps 642 mmHg 29%
    13:00 +24°C° 0 mm 0 mps 642 mmHg 26%
    14:00 +26°C° 0 mm 1 mps 641 mmHg 25%
    15:00 +26°C° 0 mm 1 mps 641 mmHg 24%
    16:00 +27°C° 0 mm 1 mps 641 mmHg 23%
    17:00 +26°C° 0 mm 1 mps 641 mmHg 26%
    18:00 +26°C° 0 mm 1 mps 641 mmHg 29%
    19:00 +25°C° 0 mm 2 mps 641 mmHg 32%
    20:00 +23°C° 0 mm 2 mps 640 mmHg 39%
    21:00 +20°C° 0 mm 2 mps 639 mmHg 46%
    22:00 +17°C° 0 mm 2 mps 639 mmHg 54%
    23:00 +17°C° 0 mm 2 mps 639 mmHg 57%
    Show more